Saturday, October 25, 2014
23:41 UTC
  |  Log In   |  Register Free
Airport Search:

Meyers-Diver'S Airport
(3TE)

Meyers-Diver'S Airport Diagram
No Airport Diagram Available

FAA data valid effective September 18, 2014 - November 13, 2014 (unless otherwise noted).

 
 
 
 
 
 
 
 
 
 
 
 
 
 

Current Aviation Weather for Meyers-Diver'S Airport (3TE)

METAR data is unavailable for 3TE. The nearest METAR location is at KADG (11.3 nm SW from 3TE).

The most recent METAR observation for KADG was updated at: 2307
METAR Summary (Translated METAR)
KADG
252253Z AUTO 30009KT 10SM CLR 17/M02 A2982 RMK AO2 SLP100 T01671017
(11.3 nm SW from 3TE)
KARB
252253Z AUTO 29012G18KT 10SM CLR 16/M02 A2979 RMK AO2 PK WND 30027/2223 RAB22E31 SLP087 P0000 T01561022
(14.7 nm NE from 3TE)
TAF
No TAF information found within 50 nm of KADG
  Airport Weather Conditions for 3TE

Current weather conditions are
not available for 3TE


The nearest NOAA weather station
is at ADG, (11.3 nm SW from 3TE)
  
 Current Weather at ADG
62° F
Fair
Northwest winds at 10.4 mph
ADG NOAA Radar

Pressure: 29.82 in
Humidity: 29%
Wind: Northwest at 10.4 MPH (9 KT)
Dew Point: 28.9°F
Visibility: 10.00 mi


Airport Weather Forecast for 3TE

Translated METAR and TAF for KADG
Translated METAR for KADG (2336 UTC 25 October 2014)
found at http://aviationweather.gov/adds/metars/
 
METAR text: KADG 252253Z AUTO 30009KT 10SM CLR 17/M02 A2982 RMK AO2 SLP100 T01671017
Conditions at: KADG (ADRIAN , MI, US) observed 2253 UTC 25 October 2014
Temperature: 16.7°C (62°F)
Dewpoint: -1.7°C (29°F) [RH = 28%]
Pressure (altimeter): 29.82 inches Hg (1009.9 mb)
[Sea-level pressure: 1010.0 mb]
Winds: from the WNW (300 degrees) at 10 MPH (9 knots; 4.7 m/s)
Visibility: 10 or more miles (16+ km)
Ceiling: at least 12,000 feet AGL
Clouds: sky clear below 12,000 feet AGL
Weather: automated observation with no human augmentation;
there may or may not be significant weather present at this time
Translated TAF for KADG

There is no translated TAF available for this airport

Find All Airport Services Find A Hotel Find A Rental Car Find A Golf Course Find A Restaurant $100 Hamburger



FBO's on the Field
FBO Company Facility Photos Services Transportation Aviation Fuel Prices: Prices include tax
Catering Weather Repair Courtesy Rental Type 100LL JetA JetA+ MOGAS 8087
 
Village of Boyceville

This FBO has not yet been rated
FS:Independent
Last Updated: Oct-03
Login to update fuel prices
SS:
Contact Village of BoycevilleMore FBO Information
 
Add another FBO Facility Photos Catering Weather Repair Courtesy Rental Type 100LL JetA JetA+ MOGAS 8087
Services Transportation Aviation Fuel Prices: Prices include tax


model-print
model-print
model-print
model-print